[[{"header":{"parameterUnit":"m.s-1","parameterCategory":1,"la1":30.2991,"la2":30.254,"lo1":-89.0895,"lo2":-89.0444,"dy":0.0017,"dx":0.0017,"nx":28,"ny":28,"refTime":"2024-08-13T09:00:00:Z","depth":0,"parameterNumber":2,"parameterNumberName":"U-component_of_WINDS"},"data":[0,0,0,0,0,0,0,0,0,0,0,0,0,0,0,0,0,0,0,0,0,0,0,0,0,0,0,0,0,0,0,0,0,0,0,0,0,0,0,0,0,0,0,0,0,0,0,0,0,0,0,0,0,0,0,0,0,0,3.7286,3.7287,0,3.7377,3.7378,3.7379,3.7318,3.7316,3.7313,3.731,3.7404,3.7409,3.7414,0,0,0,0,0,0,0,0,0,0,0,0,0,3.706,3.7065,3.7286,3.7287,3.7288,3.7377,3.7378,3.7379,3.7319,3.7316,3.7312,3.7309,3.7403,3.7409,3.7415,0,0,0,0,0,0,0,0,0,0,0,0,0,3.7156,3.7066,3.7286,3.7269,3.7268,3.7377,3.7378,3.738,3.732,3.7315,3.7311,3.7307,3.7401,3.7408,3.7416,3.7546,0,0,3.7439,3.7442,0,0,0,0,0,0,0,0,3.715,3.7164,3.727,3.727,3.7269,3.7332,3.7333,3.7436,3.7321,3.73,3.731,3.7305,3.7384,3.7392,3.7419,3.7551,3.7555,3.744,3.7444,3.7448,3.745,0,0,0,0,0,0,0,3.7144,3.716,3.7322,3.7272,3.7271,3.7257,3.7266,3.7352,3.7364,3.7302,3.7297,3.7309,3.7383,3.7412,3.7421,3.7556,3.7439,3.7446,3.7451,3.7454,3.78,3.7805,0,0,0,0,0,0,3.7139,3.7155,3.7319,3.7325,3.7198,3.7264,3.7274,3.7316,3.7363,3.7366,3.7312,3.7306,3.7401,3.7412,3.7424,3.758,3.7448,3.7455,3.7459,3.7796,3.7801,3.7806,0,0,0,0,0,0,3.7134,3.7154,3.7315,3.7239,3.7258,3.7273,3.732,3.732,3.7349,3.7371,3.7373,3.734,3.7398,3.7413,3.7516,3.7582,3.7458,3.7465,3.779,3.7798,3.7804,3.7893,0,0,0,0,0,0,3.7128,3.7153,3.7202,3.724,3.7262,3.7406,3.7324,3.7325,3.7362,3.7354,3.7397,3.74,3.7396,3.7505,3.7524,3.759,3.7471,3.7785,3.7794,3.7802,3.7884,3.7902,3.7917,0,0,0,0,0,3.712,3.7223,3.7205,3.7225,3.7324,3.741,3.7423,3.7415,3.7368,3.7418,3.7432,3.7399,3.7572,3.7516,3.7537,3.7607,3.778,3.7791,3.7801,3.7877,3.7899,3.7917,0,0,0,0,0,0,3.7193,3.7228,3.7208,3.7327,3.7366,3.74,3.7462,3.7438,3.7492,3.7483,3.7471,3.7481,3.759,3.7608,3.7546,3.7736,3.7669,3.7684,3.7719,3.774,3.7757,3.7749,3.7477,0,0,0,0,0,3.7222,3.7289,3.7316,3.7419,3.744,3.7448,3.7485,3.7476,3.7516,3.7532,3.7554,3.7595,3.7658,3.77,3.776,3.7887,3.7896,3.7945,3.7962,3.7975,3.7988,3.8057,3.808,3.7841,3.7841,3.784,0,0,3.7285,3.7312,3.7355,3.7434,3.7463,3.7533,3.7462,3.7538,3.759,3.7544,3.7643,3.7661,3.7705,3.7821,3.7873,3.784,3.8057,3.7989,3.7999,3.8005,3.807,3.8093,3.8113,3.7848,3.7846,3.7845,0,0,3.7434,3.7461,3.755,3.7581,3.7626,3.7631,3.7652,3.769,3.77,3.78,3.7767,3.7828,3.7938,3.7971,3.8002,3.8165,3.8137,3.8185,3.8271,3.8339,3.8358,3.8374,3.8432,3.8453,3.8198,3.8198,3.8198,0,3.7505,3.7608,3.7598,3.7677,3.7713,3.7675,3.7764,3.7795,3.7858,3.7884,3.7846,3.7983,3.8011,3.8134,3.8174,3.82,3.8225,3.818,3.8356,3.8372,3.8388,3.8443,3.8465,3.8204,3.8203,3.8203,3.8202,0,3.7694,3.7766,3.7832,3.7894,3.7937,3.8021,3.8024,3.807,3.8057,3.8066,3.8168,3.82,3.8266,3.8294,3.8283,3.8417,3.8395,3.8357,3.8289,3.8416,3.8468,3.8489,3.8212,3.821,3.8208,3.8207,0,0,3.789,3.7946,3.797,3.7998,3.8045,3.8101,3.8184,3.8248,3.8287,3.8332,3.8401,3.8496,3.8461,3.8497,3.8489,3.8548,3.8675,3.8503,3.8504,3.8533,3.8825,3.8852,3.8877,3.8657,3.8661,3.8664,3.8821,0,3.8042,3.8185,3.8179,3.8314,3.838,3.8345,3.8417,3.8455,3.8466,3.8525,3.8537,3.8604,3.8554,3.8575,3.8632,3.8647,3.8733,3.8636,3.8721,3.8724,3.871,3.8904,3.8933,3.908,3.8841,3.8844,3.8847,0,3.8237,3.8289,3.843,3.8468,3.8496,3.8561,3.8619,3.8676,3.8718,3.8722,3.8762,3.8745,3.8829,3.876,3.8876,3.881,3.8845,3.8858,3.8864,3.8871,3.8793,3.8916,3.9126,3.9148,3.8879,3.8876,3.8874,0,3.8366,3.8471,3.8568,3.8593,3.8641,3.8687,3.8709,3.8747,3.8786,3.8838,3.8863,3.8924,3.8957,3.9005,3.9005,3.8955,3.9123,3.9053,3.9129,3.9129,3.9165,3.9162,3.9383,3.9188,3.9188,3.9188,3.9187,0,3.8535,3.8623,3.8627,3.8687,3.8785,3.8777,3.8874,3.8891,3.8926,3.8989,3.8963,3.9023,3.902,3.9081,3.9082,3.9178,3.9193,3.9199,3.9198,3.9201,3.92,3.9223,3.9213,3.9194,3.9192,3.9191,3.919,0,3.8695,3.8701,3.8806,3.8842,3.8853,3.8924,3.8955,3.9012,3.9022,3.9102,3.9121,3.9136,3.9207,3.9211,3.9293,3.9294,3.941,3.9399,3.9396,3.9394,3.9469,3.9461,3.9711,3.9743,3.9528,3.953,3.9532,0,3.8802,3.8869,3.8912,3.8953,3.8977,3.9043,3.9083,3.9079,3.9121,3.9175,3.9226,3.9294,3.9348,3.9463,3.9482,3.9544,3.9534,3.9617,3.9543,3.9544,3.9534,3.953,3.9537,3.9631,3.9633,3.9635,3.9637,0,3.8992,3.8992,3.905,3.911,3.9158,3.9206,3.9249,3.9284,3.9285,3.9335,3.9406,3.9449,3.9532,3.9601,3.9662,3.9685,3.9662,3.966,3.9681,3.9684,3.968,3.9683,3.9435,3.9654,3.9653,3.9651,3.965,3.965,3.9128,3.9186,3.9226,3.9292,3.9325,3.9366,3.9422,3.9439,3.9498,3.9566,3.956,3.964,3.9681,3.9761,3.9789,3.9852,3.9823,3.9853,3.9861,3.9868,3.9876,3.9671,3.9863,3.9862,3.9862,3.9862,3.9861,0,3.9316,3.9341,3.9401,3.9464,3.9516,3.9489,3.9537,3.9582,3.9652,3.9693,3.9747,3.983,3.9896,3.992,3.9985,4.003,4.0021,4.0047,4.0044,4.0049,3.9898,3.9873,4.0054,4.0054,4.0054,4.0054,4.0054,4.0053,3.942,3.9517,3.9522,3.9634,3.9658,3.9735,3.9765,3.9803,3.9835,3.9929,3.9984,3.9999,4.0033,4.01,4.016,4.0165,4.019,4.0221,4.0222,4.008,4.006,4.0042,4.0018,4.0227,4.0227,4.0368,4.037,4.0371]},{"header":{"parameterUnit":"m.s-1","parameterCategory":1,"la1":30.2991,"la2":30.254,"lo1":-89.0895,"lo2":-89.0444,"dy":0.0017,"dx":0.0017,"nx":28,"ny":28,"refTime":"2024-08-13T09:00:00:Z","depth":0,"parameterNumber":3,"parameterNumberName":"V-component_of_WINDS"},"data":[0,0,0,0,0,0,0,0,0,0,0,0,0,0,0,0,0,0,0,0,0,0,0,0,0,0,0,0,0,0,0,0,0,0,0,0,0,0,0,0,0,0,0,0,0,0,0,0,0,0,0,0,0,0,0,0,0,0,-0.5513,-0.5514,0,-0.5539,-0.5539,-0.554,-0.5551,-0.555,-0.555,-0.555,-0.5576,-0.5577,-0.5578,0,0,0,0,0,0,0,0,0,0,0,0,0,-0.5474,-0.5474,-0.5513,-0.5514,-0.5514,-0.5539,-0.554,-0.554,-0.5551,-0.555,-0.555,-0.555,-0.5576,-0.5577,-0.5578,0,0,0,0,0,0,0,0,0,0,0,0,0,-0.5494,-0.5474,-0.5513,-0.5522,-0.5524,-0.5539,-0.554,-0.554,-0.5551,-0.555,-0.555,-0.555,-0.5576,-0.5577,-0.5578,-0.5586,0,0,-0.5581,-0.5582,0,0,0,0,0,0,0,0,-0.5493,-0.5496,-0.5521,-0.5522,-0.5523,-0.5542,-0.5535,-0.5555,-0.5551,-0.554,-0.555,-0.555,-0.5565,-0.5567,-0.5572,-0.5588,-0.5589,-0.5581,-0.5582,-0.5583,-0.5583,0,0,0,0,0,0,0,-0.5492,-0.5495,-0.5524,-0.5521,-0.5523,-0.5525,-0.5528,-0.5539,-0.5553,-0.5541,-0.5542,-0.5545,-0.5565,-0.5571,-0.5572,-0.5589,-0.5581,-0.5582,-0.5583,-0.5584,-0.5613,-0.5614,0,0,0,0,0,0,-0.5489,-0.5493,-0.5523,-0.5524,-0.5508,-0.5526,-0.5529,-0.5536,-0.5553,-0.5555,-0.5545,-0.5545,-0.5569,-0.5571,-0.5573,-0.5585,-0.5583,-0.5584,-0.5584,-0.5613,-0.5613,-0.5614,0,0,0,0,0,0,-0.5488,-0.5491,-0.5522,-0.5509,-0.5513,-0.5527,-0.5534,-0.5536,-0.5542,-0.5555,-0.5558,-0.5548,-0.5569,-0.5572,-0.5583,-0.5586,-0.5584,-0.5585,-0.5613,-0.5613,-0.5614,-0.5607,0,0,0,0,0,0,-0.5487,-0.5491,-0.5494,-0.5509,-0.5514,-0.5531,-0.5534,-0.5537,-0.5543,-0.5544,-0.5559,-0.5561,-0.5569,-0.5581,-0.5584,-0.5587,-0.5586,-0.5613,-0.5613,-0.5613,-0.5607,-0.5607,-0.5607,0,0,0,0,0,-0.5485,-0.5491,-0.5494,-0.5498,-0.5518,-0.5531,-0.5534,-0.5543,-0.5544,-0.5547,-0.5556,-0.5561,-0.5585,-0.5583,-0.5586,-0.5589,-0.5613,-0.5613,-0.5613,-0.5607,-0.5607,-0.5607,0,0,0,0,0,0,-0.5476,-0.5493,-0.5497,-0.5508,-0.5518,-0.5533,-0.5538,-0.5542,-0.5553,-0.5553,-0.5564,-0.5567,-0.5577,-0.5584,-0.5581,-0.5598,-0.5599,-0.56,-0.5593,-0.5593,-0.5593,-0.5591,-0.5587,0,0,0,0,0,-0.5475,-0.5484,-0.5499,-0.5507,-0.5512,-0.5524,-0.553,-0.5536,-0.5547,-0.5551,-0.5561,-0.5571,-0.5581,-0.5588,-0.5598,-0.5608,-0.5611,-0.5612,-0.5612,-0.5612,-0.5612,-0.5619,-0.5619,-0.5615,-0.5615,-0.5615,0,0,-0.5473,-0.5484,-0.5489,-0.5505,-0.5514,-0.5523,-0.5527,-0.5537,-0.5544,-0.5553,-0.5564,-0.5572,-0.5584,-0.5595,-0.56,-0.5601,-0.5614,-0.5612,-0.5612,-0.5613,-0.5619,-0.5619,-0.562,-0.5615,-0.5615,-0.5615,0,0,-0.5475,-0.5484,-0.5492,-0.5501,-0.5514,-0.5522,-0.5524,-0.5538,-0.5544,-0.5555,-0.5562,-0.5571,-0.5587,-0.5596,-0.5603,-0.5608,-0.5613,-0.5611,-0.5611,-0.5617,-0.5617,-0.5617,-0.562,-0.562,-0.5612,-0.5612,-0.5612,0,-0.5472,-0.5486,-0.5496,-0.5505,-0.5512,-0.5521,-0.5529,-0.5537,-0.5552,-0.5557,-0.5558,-0.5579,-0.5588,-0.5602,-0.5603,-0.5608,-0.5611,-0.5609,-0.5616,-0.5617,-0.5617,-0.5619,-0.562,-0.5611,-0.5612,-0.5612,-0.5612,0,-0.5481,-0.5491,-0.5495,-0.551,-0.5518,-0.5527,-0.5538,-0.5544,-0.555,-0.5558,-0.557,-0.5581,-0.5593,-0.5597,-0.5602,-0.5611,-0.5611,-0.5614,-0.5615,-0.5617,-0.5619,-0.562,-0.5611,-0.5611,-0.5611,-0.5611,0,0,-0.5477,-0.5498,-0.55,-0.5507,-0.5522,-0.553,-0.5539,-0.5551,-0.5557,-0.5567,-0.5575,-0.559,-0.5592,-0.56,-0.5606,-0.5612,-0.5616,-0.5614,-0.5614,-0.5614,-0.5626,-0.5624,-0.5625,-0.5619,-0.5619,-0.5619,-0.5625,0,-0.5481,-0.5498,-0.5507,-0.552,-0.553,-0.5538,-0.5546,-0.5556,-0.5564,-0.5573,-0.5582,-0.5592,-0.5594,-0.5599,-0.5605,-0.5614,-0.5618,-0.5614,-0.5627,-0.5627,-0.5623,-0.5626,-0.5624,-0.5629,-0.5626,-0.5626,-0.5626,0,-0.5488,-0.5499,-0.5513,-0.5527,-0.5531,-0.5538,-0.5551,-0.5559,-0.5571,-0.5576,-0.5585,-0.5591,-0.5602,-0.5602,-0.5616,-0.5613,-0.5619,-0.5624,-0.5625,-0.5626,-0.5627,-0.5628,-0.5631,-0.5632,-0.5628,-0.5628,-0.5628,0,-0.5484,-0.5502,-0.5513,-0.5519,-0.5536,-0.554,-0.5548,-0.556,-0.5567,-0.5577,-0.5582,-0.5594,-0.56,-0.5609,-0.5619,-0.5618,-0.5632,-0.5634,-0.5637,-0.5637,-0.564,-0.5639,-0.5644,-0.5643,-0.5643,-0.5643,-0.5643,0,-0.5488,-0.5496,-0.5511,-0.5518,-0.5527,-0.5538,-0.5547,-0.5555,-0.5566,-0.5574,-0.5582,-0.559,-0.5602,-0.5612,-0.5619,-0.563,-0.5633,-0.5638,-0.564,-0.5637,-0.5636,-0.5641,-0.5641,-0.5643,-0.5643,-0.5643,-0.5643,0,-0.5485,-0.5496,-0.5508,-0.5523,-0.5527,-0.5534,-0.5547,-0.5554,-0.5562,-0.5572,-0.5576,-0.5589,-0.56,-0.5611,-0.5626,-0.5631,-0.5642,-0.5644,-0.5638,-0.5639,-0.5642,-0.5641,-0.5649,-0.5651,-0.5649,-0.5649,-0.5649,0,-0.5487,-0.5493,-0.5509,-0.5516,-0.5523,-0.5533,-0.554,-0.5551,-0.5558,-0.5572,-0.5577,-0.5589,-0.56,-0.5618,-0.5628,-0.564,-0.5643,-0.5645,-0.5645,-0.5642,-0.5643,-0.5643,-0.5644,-0.5645,-0.5645,-0.5645,-0.5645,0,-0.5489,-0.5494,-0.5504,-0.5516,-0.5524,-0.5534,-0.5544,-0.5549,-0.5562,-0.557,-0.5581,-0.5589,-0.5605,-0.5617,-0.563,-0.5638,-0.5643,-0.5645,-0.5646,-0.5644,-0.564,-0.5642,-0.5637,-0.5644,-0.5644,-0.5644,-0.5644,-0.5644,-0.5488,-0.5495,-0.5507,-0.5518,-0.5527,-0.5536,-0.5544,-0.5553,-0.5563,-0.5577,-0.5582,-0.5594,-0.5607,-0.5625,-0.5632,-0.5642,-0.5643,-0.5645,-0.5646,-0.5646,-0.5646,-0.5638,-0.5645,-0.5645,-0.5645,-0.5645,-0.5645,0,-0.5491,-0.5499,-0.5509,-0.5523,-0.5532,-0.5537,-0.5548,-0.5556,-0.5566,-0.5577,-0.5587,-0.5601,-0.5612,-0.5624,-0.5637,-0.5642,-0.5645,-0.5645,-0.5645,-0.5647,-0.5644,-0.5642,-0.5643,-0.5643,-0.5643,-0.5643,-0.5643,-0.5643,-0.5493,-0.5504,-0.551,-0.5526,-0.5534,-0.5546,-0.5553,-0.5561,-0.557,-0.5585,-0.5595,-0.5603,-0.5614,-0.5628,-0.5639,-0.5642,-0.5646,-0.5645,-0.5649,-0.5647,-0.5647,-0.5647,-0.5645,-0.5646,-0.5646,-0.5651,-0.5651,-0.5651]}]]